Location: Barrio de Buenos Aires
(28.4500°N, 16.2667°W)
Time: 04:50:05
(UTC+00:00)

Cosmos 2251 Rocket - Pass Details

Date: 24 January 2020
Orbit: 764 x 792 km, 74.0° (Epoch: 19 February)

Event Time Altitude Azimuth Distance (km) Brightness Sun altitude
Rises 19:28:18 0° 357° (N) 3,260 6.6 -11.4°
Reaches altitude 10° 19:30:57 10° 7° (N) 2,334 5.8 -11.9°
Maximum altitude 19:35:37 31° 69° (ENE) 1,343 4.2 -12.9°
Drops below altitude 10° 19:40:19 10° 131° (SE) 2,340 5.7 -13.9°
Sets 19:42:57 0° 142° (SE) 3,269 6.5 -14.5°
